TimeCDT,TemperatureF,Dew PointF,Humidity,Sea Level PressureIn,VisibilityMPH,Wind Direction,Wind SpeedMPH,Gust SpeedMPH,PrecipitationIn,Events,Conditions,WindDirDegrees,DateUTC
12:55 AM,26.4,18.3,71,30.31,10.0,NW,5.8,-,N/A,,Overcast,310,2012-10-27 05:55:00
1:55 AM,23.5,18.9,82,30.31,10.0,WSW,4.6,-,N/A,,Partly Cloudy,240,2012-10-27 06:55:00
2:55 AM,23.2,18.5,82,30.31,10.0,SW,5.8,-,N/A,,Overcast,230,2012-10-27 07:55:00
3:55 AM,24.1,19.0,81,30.30,10.0,SW,4.6,-,N/A,,Overcast,230,2012-10-27 08:55:00
4:55 AM,24.4,18.7,79,30.30,10.0,Calm,Calm,-,N/A,,Overcast,0,2012-10-27 09:55:00
5:55 AM,24.1,18.9,80,30.31,10.0,WSW,3.5,-,N/A,,Overcast,240,2012-10-27 10:55:00
6:55 AM,24.4,19.0,80,30.32,10.0,SW,3.5,-,N/A,,Overcast,220,2012-10-27 11:55:00
7:55 AM,24.4,19.4,81,30.33,10.0,WSW,3.5,-,N/A,,Overcast,240,2012-10-27 12:55:00
8:55 AM,24.6,19.9,82,30.34,10.0,West,3.5,-,N/A,,Overcast,270,2012-10-27 13:55:00
9:55 AM,26.4,19.6,75,30.34,10.0,WNW,3.5,-,N/A,,Overcast,290,2012-10-27 14:55:00
10:55 AM,26.1,19.6,76,30.35,10.0,NNW,6.9,-,N/A,,Overcast,340,2012-10-27 15:55:00
11:55 AM,27.7,17.4,65,30.34,10.0,Variable,6.9,-,N/A,,Overcast,0,2012-10-27 16:55:00
12:55 PM,28.9,14.9,56,30.33,10.0,Calm,Calm,-,N/A,,Overcast,0,2012-10-27 17:55:00
1:55 PM,29.7,13.8,52,30.32,10.0,NNW,5.8,-,N/A,,Overcast,330,2012-10-27 18:55:00
2:55 PM,30.9,13.3,48,30.30,10.0,NNW,8.1,-,N/A,,Overcast,330,2012-10-27 19:55:00
3:55 PM,30.0,11.8,47,30.30,10.0,WNW,5.8,-,N/A,,Overcast,290,2012-10-27 20:55:00
4:55 PM,30.6,14.2,51,30.30,10.0,NW,8.1,-,N/A,,Overcast,310,2012-10-27 21:55:00
5:55 PM,27.1,14.9,60,30.32,10.0,WNW,4.6,-,N/A,,Scattered Clouds,290,2012-10-27 22:55:00
6:55 PM,22.6,14.5,71,30.33,10.0,West,4.6,-,N/A,,Mostly Cloudy,270,2012-10-27 23:55:00
7:55 PM,21.0,12.9,71,30.35,10.0,Calm,Calm,-,N/A,,Clear,0,2012-10-28 00:55:00
8:55 PM,15.6,10.6,80,30.35,10.0,Calm,Calm,-,N/A,,Clear,0,2012-10-28 01:55:00
9:55 PM,15.1,11.3,85,30.35,10.0,Calm,Calm,-,N/A,,Clear,0,2012-10-28 02:55:00
10:55 PM,14.4,10.2,84,30.36,10.0,WNW,4.6,-,N/A,,Clear,290,2012-10-28 03:55:00
11:55 PM,14.0,9.7,83,30.36,10.0,NW,4.6,-,N/A,,Clear,310,2012-10-28 04:55:00